STARLINK-4422, 53639

Orbit data source: Space-Track

STARLINK-4422, 53639 is a payload satellite owned by SpaceX/Seattle (US) in LEO that was launched on Sun, 28 Aug 2022 UTC via an FALCON 9 launch vehicle from the Air Force Eastern Test Range (AFETR). Payload-class satellites include a variety of spacecraft equipped with specific instruments for various scientific and technological missions. These include communications satellites like Starlink; space stations such as the ISS; scientific satellites like the Hubble; Earth observation satellites from companies like Planet Labs, Umbra, and HawkEye 360; GPS; miniature CubeSats for education and research; and military/defense satellites.

Loading next visibility...
Identifier
53639, 2022-104BD
Orbit
LEO
Country
Flag of USUS
Related business
Manufacturer
SpaceX/Seattle
Mission
Operational Commercial Communications
Bus & Motor
STARLINK, Unknown motor
Mass
300 kg wet, ~290 kg dry
Launch date (UTC)
2022-08-28 (3 years ago)
Launch vehicle
FALCON 9
Launch site
Air Force Eastern Test Range (AFETR)
Object type
Payload
Rocket body
Debris
Shape & HBR
Box + 1 Pan, 10.1 m
Radar Cross Section
13.562 m², Large (>1 m²)

Expand to show TLE details & history
Last TLE update: 15 hours ago

TLE from 15 hours ago
0 STARLINK-4422
1 53639U 22104BD  25300.84765534  .00000292  00000-0  36408-4 0  9995
2 53639  53.2159 100.2589 0001382  85.0490 275.0660 15.08841692176002
Epoch: 2025-10-27T20:20Z
TLE epoch observation values (Epoch: 2025-10-27T20:20:37.421Z)
Latitude
-0.00001°
Longitude
118.65935°
Altitude
540.551 km
Speed
7.593 km/s
True Right ascension
06h 41m 02s
True Declination
0° 00' 00"
Sunlit
Object was in daylight at epoch
Visualization orbit readout
Latitude
Unknown
Longitude
Unknown
Altitude
Unknown
Speed
Unknown
Apparent Right ascension
Unknown
Apparent Declination
Unknown
Sunlit
N/A
Visualization observer readout
Local Sidereal Time
07:01:33
Azimuth
Unknown
Elevation
Unknown
Doppler factor
Unknown
Orbital elements
Apogee altitude
540.939 km
Perigee altitude
539.027 km
Semi-major axis
6,918.12 km
Eccentricity
0.00014
Inclination
53.2159°
RAAN
100.2589°
Arg. of periapsis
85.049°
True anomaly
275.05023°
Mean anomaly
275.066°
Eccentric anomaly
275.05811°
Mean motion
3.77191 °/min
Orbital period
95.44 mins
BSTAR
0.000036408
Loading maneuver chart data...
Computing Atmospheric mass density...
Loading historical data...
Loading historical data...
Loading historical data...
Loading historical data...
Loading historical data...
Loading historical data...
Loading historical data...

Documentation

Showing up to 5 results
|